Regional Weather Roundup
Issued by NWS

Home | Current Version | Previous Version | Text Only | Print | Product List | Glossary Off
Versions: 1 2 3 4 5 6 7 8 9 10 11 12 13 14 15 16 17 18 19 20 21 22 23 24 25 26 27 28 29 30 31 32 33 34 35 36 37 38 39 40 41 42 43 44 45 46 47 48 49 50

000
ASUS43 KDMX 212201
RWRIA

WEATHER ROUNDUP FOR IOWA
NATIONAL WEATHER SERVICE DES MOINES IA
500 PM CDT MON MAY 21 2018

NOTE: "FAIR" INDICATES FEW OR NO CLOUDS BELOW 12,000 FEET WITH NO
SIGNIFICANT WEATHER AND/OR OBSTRUCTIONS TO VISIBILITY.

* - THESE STATIONS ARE NOT NWS STATIONS...THUS NOT UNDER NWS
QUALITY CONTROL.  THEY ALSO DO NOT REPORT WEATHER SUCH
AS PRECIPITATION OR FOG.

IAZ001>003-012>014-020>022-031>034-043>046-212300-
   NORTHWEST IOWA

CITY           SKY/WX    TMP DP  RH WIND       PRES   REMARKS
CARROLL *      PTSUNNY  N/A N/A N/A W12       29.97F
CHEROKEE *     CLOUDY    65  61  85 CALM      29.98F
DENISON *      CLOUDY    66  59  77 W10       30.01S
LE MARS *      CLOUDY    66  57  72 S6        29.98F
ORANGE CITY *  PTSUNNY   66  57  72 SW7       29.99F
SHELDON *      CLOUDY    64  63  94 CALM      29.98F
SIOUX CITY     MOSUNNY   68  58  70 SE3       29.98F
SPENCER        CLOUDY    64  58  80 CALM      30.00S
STORM LAKE *   PTSUNNY   66  61  82 W8        29.99F
$$

IAZ055>058-069>071-079>083-090>094-212300-
   SOUTHWEST IOWA

CITY           SKY/WX    TMP DP  RH WIND       PRES   REMARKS
ATLANTIC *     MOSUNNY   70  59  68 W12       29.99R
AUDUBON *      SUNNY     70  61  73 W6        30.00S
CLARINDA *     MOSUNNY   75  59  57 VRB6      30.00F
COUNCIL BLFS * MOSUNNY   72  63  73 VRB7      29.98F
CRESTON *      PTSUNNY   73  59  60 VRB6      30.00S
HARLAN  *      PTSUNNY   68  59  73 SW9G16    30.03F
LAMONI         MOSUNNY   72  61  68 W9        29.99F
RED OAK *      MOSUNNY   75  55  50 W8G14     29.99F
SHENANDOAH *   SUNNY     75  55  50 NW9       29.98F
$$

IAZ047>049-059>061-072>074-084-212300-
   CENTRAL IOWA

CITY           SKY/WX    TMP DP  RH WIND       PRES   REMARKS
AMES           CLOUDY    67  60  78 W7        29.98F
ANKENY *       CLOUDY    68  61  77 CALM      29.98F
BOONE *        CLOUDY    66  61  82 N6        29.98F
CHARITON *     PTSUNNY   72  63  73 CALM      29.98F
DES MOINES     MOSUNNY   74  62  66 CALM      29.97F
GRINNELL*      CLOUDY    64  60  87 W5        30.01S
KNOXVILLE *    MOSUNNY   70  61  73 VRB5      29.97F
MARSHALLTOWN   CLOUDY    64  61  90 W3        29.99S
NEWTON *       CLOUDY    66  61  82 W5        29.99S
PELLA *        CLOUDY    71  62  73 NW7       30.00F
PERRY *        PTSUNNY   70  61  74 N3        29.98S
$$

IAZ004>006-015-016-023>025-035-036-212300-
   NORTH CENTRAL IOWA

CITY           SKY/WX    TMP DP  RH WIND       PRES   REMARKS
ALGONA *       PTSUNNY   63  59  88 CALM      30.00S
CLARION *      CLOUDY    64  59  82 NW6       29.99F
ESTHERVILLE    LGT RAIN  60  59  96 CALM      29.99F FOG
FORT DODGE *   CLOUDY    64  59  83 CALM      29.99F
MASON CITY     CLOUDY    61  57  87 W3        30.01F
FOREST CITY *  CLOUDY    61  59  94 CALM      30.00F
WEBSTER CITY * CLOUDY    64  61  88 VRB5      29.97F
IOWA FALLS *   CLOUDY    64  60  85 NW5       30.00F
$$

IAZ007>011-017>019-026>030-037>042-050>054-066-212300-
   NORTHEAST IOWA

CITY           SKY/WX    TMP DP  RH WIND       PRES   REMARKS
CEDAR RAPIDS   CLOUDY    64  61  90 NW8       29.98F FOG
CHARLES CITY * CLOUDY    59  55  88 CALM      30.00F
CLINTON *      PTSUNNY   67  63  87 CALM      29.98F
DECORAH *      CLOUDY    57  57 100 NE5       30.00S
DUBUQUE        CLOUDY    60  58  92 E5        29.99F FOG
MONTICELLO *   PTSUNNY   64  63  94 CALM      29.98F
OELWEIN *      CLOUDY    61  59  94 CALM      30.00S
WATERLOO       CLOUDY    62  58  86 W5        29.98F
$$

IAZ064-065-067-068-078-212300-
   EAST CENTRAL IOWA

CITY           SKY/WX    TMP DP  RH WIND       PRES   REMARKS
DAVENPORT      PTSUNNY   73  64  73 W8        29.98F
IOWA CITY      CLOUDY    67  62  84 W9        30.00R
MT. PLEASANT * SUNNY     73  61  64 W10       29.97F
MUSCATINE *    FAIR      75  63  64 W12G21    29.97R
QUAD CITIES    PTSUNNY   76  65  68 CALM      29.95F
$$

IAZ062-063-075>077-085>089-095>099-212300-
   SOUTHEAST IOWA

CITY           SKY/WX    TMP DP  RH WIND       PRES   REMARKS
BURLINGTON     SUNNY     77  62  59 W14G22    29.96F
FAIRFIELD *    CLOUDY    72  63  73 NW8       29.97F
FORT MADISON * PTSUNNY   77  63  61 W12       29.98S
KEOKUK *       PTSUNNY   75  63  64 W7G14     29.96F
OSKALOOSA *    FAIR      69  62  78 NW9       29.99S
CENTERVILLE *    N/A     75  66  73 W6        29.99F
OTTUMWA        CLOUDY    73  64  73 N10       29.98S
WASHINGTON *   PTSUNNY   73  64  73 W12G17    29.99S
$$

ABBREVIATIONS USED IN REMARKS
   TC - TEMPERATURES IN CELSIUS
  WCI - WIND CHILL INDEX
   HX - HEAT INDEX
  VSB - VISIBILITY
$$





USA.gov is the U.S. government's official web portal to all federal, state and local government web resources and services.